Flag for Germany Weather past 2 weeks in Frankfurt, Hesse, Germany

Now
34 °F

Passing clouds.


Feels Like: 26 °F
Forecast: 34 / 38 °F
Wind: 10 mph from Southwest

Location: Frankfurt-M-Flughafen Airport

Current Time: Jan 29, 2015 at 2:08:05 AM

Latest Report: Jan 29, 2015 at 1:20 AM


Visibility: N/A

Pressure: 29.53 "Hg

Humidity: 93%

Dew point: 32 °F

Location of FrankfurtLocation

Historic Weather in Frankfurt — Graph

°F

Frankfurt temperature yesterday

Maximum temperature yesterday: 41 °F (at 4:50 PM)
Minimum temperature yesterday: 36 °F (at 5:20 AM)
Average temperature yesterday: 38 °F

Past Weeks' High & Low Weather Summary

 TemperatureHumidityPressure
High52 °F (Jan 15, 6:50 PM)100% (Jan 15, 1:50 AM)30.42 "Hg (Jan 15, 1:50 AM)
Low25 °F (Jan 24, 1:50 AM)58% (Jan 15, 6:50 PM)29.47 "Hg (Jan 28, 8:50 PM)
Average36 °F88%30.00 "Hg
* Reported Jan 14 12:20 AM — Jan 29 12:50 AM, Frankfurt, Weather by CustomWeather, © 2014

Note: Actual official high and low records may vary slightly from our data, if they occured in-between our weather recording intervals... More about our weather records

Advertising

Frankfurt weather history for previous 24 hours

 ConditionsComfort  
Time TempWeatherWind HumidityBarometerVisibility
12:50 AM
Jan 29
34 °FPassing clouds.9 mph93%29.50 "HgN/A
12:20 AM36 °FClear.9 mph87%29.53 "Hg10 mi
11:50 PM
Jan 28
36 °FClear.10 mph93%29.53 "Hg10 mi
11:20 PM36 °FPartly cloudy.10 mph93%29.53 "HgN/A
10:20 PM37 °FLight rain. Passing clouds.12 mph93%29.53 "HgN/A
9:50 PM39 °FRain. Low clouds.16 mph100%29.50 "Hg4 mi
9:20 PM39 °FLight rain. Low clouds.17 mph93%29.47 "HgN/A
8:50 PM39 °FLight rain. Low clouds.17 mph93%29.47 "HgN/A
8:20 PM39 °FLight rain. Low clouds.12 mph93%29.50 "HgN/A
7:50 PM39 °FRain. Low clouds.9 mph93%29.53 "Hg3 mi
7:20 PM41 °FLight rain. Low clouds.20 mph81%29.56 "Hg5 mi
6:50 PM41 °FLight rain. Low clouds.17 mph76%29.56 "HgN/A
6:20 PM41 °FLight rain. Passing clouds.18 mph81%29.59 "HgN/A
5:50 PM41 °FLight rain. Passing clouds.16 mph81%29.62 "HgN/A
5:20 PM41 °FLight rain. Passing clouds.16 mph76%29.65 "HgN/A
4:50 PM41 °FLight rain. Partly sunny.15 mph76%29.65 "HgN/A
4:20 PM39 °FLight rain. Partly sunny.17 mph87%29.68 "HgN/A
3:50 PM39 °FLight rain. Partly sunny.15 mph87%29.74 "HgN/A
3:20 PM39 °FScattered showers. Partly sunny.17 mph87%29.77 "HgN/A
2:50 PM39 °FScattered showers. Partly sunny.17 mph87%29.77 "HgN/A
2:20 PM39 °FScattered showers. Partly sunny.14 mph87%29.80 "HgN/A
1:50 PM39 °FBroken clouds.17 mph87%29.83 "HgN/A
1:20 PM39 °FBroken clouds.15 mph87%29.86 "HgN/A
12:50 PM39 °FBroken clouds.14 mph87%29.89 "HgN/A
12:20 PM39 °FBroken clouds.15 mph87%29.92 "HgN/A
11:50 AM39 °FPartly sunny.13 mph87%29.95 "HgN/A
11:20 AM39 °FPartly sunny.12 mph87%29.98 "HgN/A
10:50 AM39 °FPartly sunny.10 mph87%29.98 "HgN/A
10:20 AM37 °FLight rain. Partly sunny.12 mph93%30.01 "HgN/A
9:50 AM37 °FLight rain. Broken clouds.13 mph93%30.01 "Hg5 mi
9:20 AM37 °FPartly sunny.9 mph87%30.04 "Hg6 mi
8:50 AM37 °FBroken clouds.10 mph87%30.04 "Hg4 mi
8:20 AM36 °FBroken clouds.9 mph93%30.07 "Hg4 mi
7:50 AM36 °FPartly cloudy.10 mph93%30.07 "Hg4 mi
7:20 AM36 °FPartly cloudy.9 mph93%30.07 "Hg5 mi
6:50 AM36 °FPassing clouds.8 mph93%30.07 "Hg6 mi
6:20 AM36 °FPassing clouds.10 mph93%30.07 "HgN/A
5:50 AM36 °FPassing clouds.6 mph93%30.09 "HgN/A
5:20 AM36 °FPartly cloudy.7 mph93%30.09 "HgN/A
4:50 AM37 °FPartly cloudy.8 mph87%30.12 "HgN/A
4:20 AM37 °FPartly cloudy.8 mph87%30.12 "HgN/A
3:50 AM37 °FPartly cloudy.8 mph87%30.12 "HgN/A
3:20 AM37 °FPassing clouds.8 mph87%30.15 "HgN/A
2:50 AM37 °FPassing clouds.9 mph87%30.15 "HgN/A
2:20 AM37 °FPassing clouds.7 mph93%30.15 "HgN/A
Weather by CustomWeather, © 2014

See weather overviewHow to use our weather pages